This is the latest recevied weather packets stored in our database for station/object IK2ILW-6. If no packets are shown the sender has not sent any weather packets the latest 10 day(s).
| Time | Temp. | Humidity | Pressure | Rain* | Wind** | Luminosity | Snow |
|---|---|---|---|---|---|---|---|
| 1777997193 | 3.89° C | 96% | 1013.1 hPa | 1.02 mm | - | 53 W/m² | - |
| 1777996898 | 3.89° C | 96% | 1013.2 hPa | 1.02 mm | - | 47 W/m² | - |
| 1777996587 | 3.89° C | 96% | 1013.1 hPa | 1.02 mm | - | 62 W/m² | - |
| 1777996292 | 3.89° C | 96% | 1013 hPa | 1.02 mm | - | 70 W/m² | - |
| 1777995997 | 3.89° C | 96% | 1013.1 hPa | 1.02 mm | - | 53 W/m² | - |
| 1777995701 | 3.89° C | 96% | 1013.1 hPa | 2.03 mm | - | 53 W/m² | - |
| 1777995386 | 3.89° C | 96% | 1013.1 hPa | 3.05 mm | - | 63 W/m² | - |
| 1777995091 | 3.89° C | 96% | 1013.1 hPa | 4.06 mm | - | 62 W/m² | - |
| 1777994795 | 4.44° C | 96% | 1013.1 hPa | 5.08 mm | - | 70 W/m² | - |
| 1777994500 | 3.89° C | 96% | 1013.1 hPa | 4.06 mm | - | 88 W/m² | - |
| 1777994184 | 3.89° C | 96% | 1013 hPa | 4.06 mm | - | 111 W/m² | - |
| 1777993890 | 3.89° C | 96% | 1013 hPa | 4.06 mm | - | 107 W/m² | - |
| 1777993594 | 4.44° C | 96% | 1013 hPa | 4.06 mm | - | 70 W/m² | - |
| 1777993283 | 3.89° C | 96% | 1013.1 hPa | 4.06 mm | - | 88 W/m² | - |
| 1777992987 | 3.89° C | 96% | 1013 hPa | 4.06 mm | - | 132 W/m² | - |
| 1777992692 | 3.89° C | 96% | 1013.1 hPa | 4.06 mm | - | 162 W/m² | - |
| 1777992394 | 3.89° C | 96% | 1013.1 hPa | 3.05 mm | - | 178 W/m² | - |
| 1777992100 | 3.89° C | 96% | 1013.1 hPa | 3.05 mm | - | 134 W/m² | - |
| 1777991800 | 3.89° C | 96% | 1013.1 hPa | 2.03 mm | - | 84 W/m² | - |
| 1777991484 | 3.89° C | 96% | 1013.1 hPa | 2.03 mm | - | 74 W/m² | - |
| 1777991188 | 3.89° C | 96% | 1013.1 hPa | 1.02 mm | - | 72 W/m² | - |
| 1777990892 | 3.89° C | 96% | 1013.1 hPa | 1.02 mm | - | 56 W/m² | - |
| 1777990597 | 3.89° C | 96% | 1013.1 hPa | 1.02 mm | - | 54 W/m² | - |
| 1777989991 | 3.89° C | 96% | 1013.1 hPa | 1.02 mm | - | 58 W/m² | - |
| 1777989696 | 3.89° C | 96% | 1013.1 hPa | 1.02 mm | - | 58 W/m² | - |
* Rain latest hour (hover to see other rain measurements)
** Current wind speed in m/s (hover to see current wind gust speed)